• Join FlightAware (Why Join?)
  • Login
  • US Flag 
01:31AM EDT


 

Airport Tracker/Info


-or-


 

Live Flight TrackerFlight Track Log ✈ GJS3710 ✈ 03-May-2013 ✈ KMSY - KORD

Flight Track Log - Related Links

Times and Time Zones

All times are in EDT time to prevent confusion due to time zone crossing. See the GJS3710 flight status page for this flight to view local times or setup timezone preferences in your user account.

Time Position Orientation Groundspeed Altitude Reporting Facility
EDT Latitude Longitude Course Direction KTS MPH feet Rate Location/Type
07:24PM 29.9958 -90.2819 30° Northeast 140 161 700  Level Houston Center
07:25PM 30.0072 -90.3128 293° West 158 182 1,800 1,500 Climbing Houston Center
07:25PM 30.0272 -90.3281 327° Northwest 181 208 2,700 1,440 Climbing Houston Center
07:26PM 30.0842 -90.3561 337° Northwest 219 252 4,200 2,100 Climbing Houston Center
07:27PM 30.2768 -90.0655 30° Northeast  Level FlightAware Approximate
07:27PM 30.1603 -90.2908 37° Northeast 272 313 7,100  Level Houston Center
07:28PM 30.3742 -90.0006 30° Northeast  Level FlightAware Approximate
07:28PM 30.2244 -90.2294 40° Northeast 292 336 9,500  Level Houston Center
07:29PM 30.4716 -89.9356 30° Northeast  Level FlightAware Approximate
07:29PM 30.2944 -90.1594 41° Northeast 323 372 10,700  Level Houston Center
07:31PM 30.3767 -90.0794 40° Northeast 372 428 12,200 1,500 Climbing Houston Center
07:32PM 30.4631 -89.9944 40° Northeast 398 458 13,900 1,740 Climbing Houston Center
07:33PM 30.5586 -89.9225 33° Northeast 405 466 15,800 1,680 Climbing Houston Center
07:34PM 30.6600 -89.8603 28° Northeast 407 468 17,400 1,380 Climbing Houston Center
07:35PM 30.7653 -89.7975 27° Northeast 419 482 18,700 1,200 Climbing Houston Center
07:36PM 30.8733 -89.7317 28° Northeast 433 498 20,000 1,260 Climbing Houston Center
07:37PM 31.0072 -89.6519 27° Northeast 447 514 21,400 1,200 Climbing Houston Center
07:38PM 31.1203 -89.5831 28° Northeast 456 525 22,500 960 Climbing Houston Center
07:39PM 31.2361 -89.5122 28° Northeast 466 536 23,500 960 Climbing Houston Center
07:40PM 31.3456 -89.4461 27° Northeast 473 544 24,500 1,020 Climbing Houston Center
07:41PM 31.4981 -89.3964 16° North 470 541 25,700 1,020 Climbing Houston Center
07:42PM 31.6267 -89.3661 11° North 470 541 26,700 960 Climbing Houston Center
07:43PM 31.7303 -89.3414 11° North 472 543 27,500 1,020 Climbing Memphis Center
07:44PM 31.8617 -89.3081 12° North 477 549 28,500 960 Climbing Memphis Center
07:45PM 31.9908 -89.2797 11° North 477 549 29,500 960 Climbing Memphis Center
07:46PM 32.1219 -89.2461 12° North 477 549 30,500 960 Climbing Memphis Center
07:47PM 32.2533 -89.2125 12° North 477 549 31,500 960 Climbing Memphis Center
07:48PM 32.3825 -89.1814 11° North 472 543 32,500 720 Climbing Memphis Center
07:49PM 32.5117 -89.1503 11° North 467 537 33,000 300 Climbing Memphis Center
07:50PM 32.6447 -89.1189 11° North 472 543 33,100 480 Climbing Memphis Center
07:51PM 32.7656 -89.0875 12° North 480 552 34,000 900 Climbing Memphis Center
07:52PM 32.8967 -89.0533 12° North 485 558 35,000 960 Climbing Memphis Center
07:53PM 33.0281 -89.0217 11° North 485 558 36,000 840 Climbing Memphis Center
07:54PM 33.1592 -88.9900 11° North 480 552 36,700 480 Climbing Memphis Center
07:55PM 33.2839 -88.9581 12° North 474 545 37,000 120 Climbing Memphis Center
07:56PM 33.4150 -88.9261 11° North 469 540 37,000  Level Memphis Center
07:57PM 33.5464 -88.8942 11° North 469 540 37,000  Level Memphis Center
07:58PM 33.6814 -88.8594 12° North 469 540 37,000  Level Memphis Center
07:59PM 33.8250 -88.8219 12° North 475 547 37,000  Level Memphis Center
08:00PM 33.9625 -88.7894 11° North 487 560 37,000  Level Memphis Center
08:01PM 34.0997 -88.7567 11° North 494 568 37,000  Level Memphis Center
08:02PM 34.2392 -88.7189 13° North 500 575 37,000  Level Memphis Center
08:03PM 34.3783 -88.6811 13° North 506 582 37,000  Level Memphis Center
08:04PM 34.5178 -88.6456 12° North 506 582 37,000  Level Memphis Center
08:05PM 34.6547 -88.6050 14° North 506 582 37,000  Level Memphis Center
08:06PM 34.7961 -88.5667 13° North 511 588 37,000  Level Memphis Center
08:07PM 34.9375 -88.5331 11° North 511 588 37,000  Level Memphis Center
08:08PM 35.0747 -88.4947 13° North 511 588 37,000  Level Memphis Center
08:09PM 35.2161 -88.4636 10° North 506 582 37,000  Level Memphis Center
08:10PM 35.3553 -88.4247 13° North 506 582 37,000  Level Memphis Center
08:11PM 35.4922 -88.3858 13° North 506 582 37,000  Level Memphis Center
08:12PM 35.6314 -88.3469 13° North 506 582 37,000  Level Memphis Center
08:13PM 35.7725 -88.3128 11° North 511 588 37,000  Level Memphis Center
08:14PM 35.9139 -88.2783 11° North 511 588 37,000  Level Memphis Center
08:15PM 36.0572 -88.2414 12° North 505 581 37,000  Level Memphis Center
08:16PM 36.1942 -88.2094 11° North 510 587 37,000  Level Memphis Center
08:17PM 36.3353 -88.1750 11° North 510 587 37,000  Level Memphis Center
08:18PM 36.4722 -88.1403 12° North 505 581 37,000  Level Memphis Center
08:19PM 36.6092 -88.1081 11° North 505 581 37,000  Level Memphis Center
08:20PM 36.7503 -88.0731 11° North 505 581 37,000  Level Memphis Center
08:21PM 36.8872 -88.0353 12° North 505 581 37,000  Level Memphis Center
08:22PM 37.0283 -88.0000 11° North 505 581 37,000  Level Memphis Center
08:23PM 37.1669 -87.9622 12° North 505 581 37,000 -360 Level Memphis Center
08:25PM 37.4469 -87.8883 12° North 512 589 36,000 -360 Descending Indianapolis Center
08:26PM 37.5872 -87.8517 12° North 509 586 36,000  Level Indianapolis Center
08:27PM 37.7283 -87.8153 12° North 510 587 36,000  Level Indianapolis Center
08:28PM 37.8667 -87.7792 12° North 506 582 36,000  Level Indianapolis Center
08:29PM 37.9956 -87.7131 22° Northeast 499 574 36,000  Level Indianapolis Center
08:30PM 38.1394 -87.6100 29° Northeast 494 568 36,000  Level Indianapolis Center
08:31PM 38.2603 -87.5231 29° Northeast 492 566 36,000 -360 Level Indianapolis Center
08:32PM 38.3828 -87.4350 29° Northeast 497 572 35,300 -1,200 Descending Indianapolis Center
08:33PM 38.5069 -87.3456 29° Northeast 501 577 33,600 -1,620 Descending Indianapolis Center
08:34PM 38.6272 -87.2547 31° Northeast 496 571 32,000 -1,560 Descending Indianapolis Center
08:35PM 38.7492 -87.1669 29° Northeast 495 570 30,500 -1,500 Descending Indianapolis Center
08:36PM 38.8697 -87.0772 30° Northeast 497 572 29,000 -780 Descending Indianapolis Center
08:37PM 38.9875 -86.9903 30° Northeast 486 559 29,000  Level Indianapolis Center
08:38PM 39.1053 -86.9025 30° Northeast 486 559 29,000  Level Indianapolis Center
08:39PM 39.2169 -86.8197 30° Northeast 479 551 29,000  Level Indianapolis Center
08:40PM 39.3331 -86.7317 30° Northeast 483 556 29,000  Level Indianapolis Center
08:41PM 39.4506 -86.6447 30° Northeast 486 559 29,000  Level Indianapolis Center
08:42PM 39.5906 -86.5386 30° Northeast 486 559 29,000 -60 Level Indianapolis Center
08:43PM 39.7086 -86.4494 30° Northeast 487 560 28,900 -600 Descending Indianapolis Center
08:44PM 39.8297 -86.3553 31° Northeast 488 562 27,800 -1,140 Descending Indianapolis Center
08:45PM 39.9383 -86.2444 38° Northeast 485 558 26,600 -1,020 Descending Indianapolis Center
08:46PM 39.9594 -86.2222 39° Northeast 487 560 26,400 -480 Descending Chicago Center
08:47PM 40.0897 -86.0917 37° Northeast 491 565 26,000 -240 Descending Chicago Center
08:48PM 40.1967 -85.9828 38° Northeast 489 563 26,000  Level Chicago Center
08:49PM 40.3042 -85.8742 38° Northeast 489 563 26,000 -300 Level Chicago Center
08:50PM 40.4106 -85.7650 38° Northeast 487 560 25,400 -780 Descending Chicago Center
08:51PM 40.5333 -85.7017 21° North 485 558 24,400 -720 Descending Chicago Center
08:52PM 40.6553 -85.7683 337° Northwest 486 559 24,000 -240 Descending Chicago Center
08:53PM 40.7550 -85.9200 311° West 498 573 24,000 -60 Level Chicago Center
08:54PM 40.8433 -86.0589 310° West 494 568 23,900 -540 Descending Chicago Center
08:55PM 40.9319 -86.1986 310° West 493 567 22,900 -1,020 Descending Chicago Center
08:56PM 41.0194 -86.3375 310° West 491 565 21,900 -1,080 Descending Chicago Center
08:57PM 41.1239 -86.5042 310° West 490 564 20,700 -1,140 Descending Chicago Center
08:58PM 41.2014 -86.6283 310° West 448 516 19,600 -1,560 Descending Chicago Center
08:59PM 41.2700 -86.7381 310° West 398 458 17,500 -1,980 Descending Chicago Center
09:00PM 41.3397 -86.8497 310° West 394 453 15,600 -1,800 Descending Chicago Center
09:01PM 41.4058 -86.9575 309° West 385 443 13,900 -1,560 Descending Chicago Center
09:02PM 41.4814 -87.0797 310° West 365 420 12,400 -1,380 Descending Chicago Center
09:03PM 41.5428 -87.1803 309° West 356 410 11,100 -1,020 Descending Chicago Center
09:04PM 41.5667 -87.2167 311° West 329 379 11,000 -120 Descending Chicago TRACON
09:04PM 41.6167 -87.3000 309° West 310 357 11,000  Level Chicago TRACON
09:05PM 41.6667 -87.3833 309° West 315 362 11,000 -420 Level Chicago TRACON
09:06PM 41.6989 -87.4567 300° West 313 360 10,300 -1,440 Descending Chicago Center
09:07PM 41.7589 -87.5672 306° West 310 357 8,400 -1,200 Descending Chicago Center
09:08PM 41.8039 -87.6503 306° West 279 321 7,900 -660 Descending Chicago Center
09:09PM 41.8444 -87.7286 305° West 260 299 7,100 -420 Descending Chicago Center
09:10PM 41.8828 -87.8083 303° West 258 297 7,100 -60 Level Chicago Center
09:11PM 41.8844 -87.9039 271° West 255 293 7,000 -60 Descending Chicago Center
09:12PM 41.8839 -87.9956 270° West 249 287 7,000 -540 Level Chicago Center
09:14PM 41.8833 -88.1167 270° West 250 288 5,900 -960 Descending Chicago TRACON
09:15PM 41.8833 -88.2000 270° West 234 269 5,100 -420 Descending Chicago TRACON
09:16PM 41.8833 -88.2833 270° West 217 250 5,100  Level Chicago TRACON
09:17PM 41.8833 -88.3589 270° West 221 254 5,100 -60 Level Chicago Center
09:18PM 41.8825 -88.4406 269° West 220 253 5,000 -120 Descending Chicago Center
09:19PM 41.8817 -88.5417 269° West 224 258 4,900 -60 Descending Chicago Center
09:20PM 41.9350 -88.5733 336° Northwest 219 252 4,900  Level Chicago Center
09:21PM 41.9667 -88.5172 53° Northeast 200 230 4,900  Level Chicago Center
09:22PM 41.9669 -88.4497 90° East 189 217 5,000  Climbing Chicago Center
09:23PM 41.9667 -88.3817 90° East 184 212 5,000  Level Chicago Center
09:24PM 41.9678 -88.3136 89° East 184 212 5,000  Level Chicago Center
09:25PM 41.9675 -88.2336 90° East 182 209 5,000 -360 Level Chicago Center
09:26PM 41.9681 -88.1708 89° East 173 199 4,300 -780 Descending Chicago Center
09:27PM 41.9681 -88.1103 90° East 169 194 3,400 -960 Descending Chicago Center
09:27PM 41.9667 -88.0667 92° East 163 188 2,800 -1,080 Descending Chicago TRACON